Погода в Старочеркасской

Россия / Ростовская область     47°14′19″N   40°02′15″E
темп.,
°C
ветер,
м/с
пор.,
м/с
влажн.,
%
обл.,
%
осадки,
мм/ч
давл.,
гПа
погр.,
м
19 мая, ср
ср1900:00+15ю1184100 0.0 100817
03:00+15ю2387100 0.1 100874
06:00+14ююз2496100 2.6 1008156
09:00+13зсз5796100 25.6 1008306
12:00+14ююз598885 2.9 1011646
15:00+17ююз8137844 4.4 10111512
18:00+16юз71280100 1.6 10111008
21:00+14ююз61387100 1.8 1011793
20 мая, чт
чт2000:00+13ююз8158895 0.1 1011854
03:00+13юз8148866 0.1 1011921
06:00+13юз7149261 0.1 1012715
09:00+17юз8117641 0.2 10131199
12:00+20зюз7105924 0.3 10131832
15:00+21зюз68563 0.3 10131812
18:00+21зюз24659 0.0 1013345
21:00+15ююв2279100 0.0 101418
21 мая, пт
пт2100:00+15всв347899 0.0 101348
03:00+13всв4985100 0.0 1013172
06:00+14всв51182100 0.0 1012280
09:00+19в71067100 0.0 1011522
12:00+23в686188 0.0 1011732
15:00+25в78595 0.0 1009888
18:00+24всв48715 0.0 1009295
21:00+20всв410860 0.0 1008179
22 мая, сб
сб2200:00+17в411740 0.0 1008208
03:00+15всв48775 0.0 1008142
06:00+15всв36801 0.0 1008146
09:00+20всв4568100 0.0 1008351
12:00+24св4463100 0.0 1009602
15:00+25юв0162100 0.0 1010673
18:00+24ссв387399 0.0 1009367
21:00+21с3978100 0.0 1008162
23 мая, вс
вс2300:00+20св4976100 0.0 1006169
03:00+18всв3676100 0.0 1006101
06:00+17всв4677100 0.0 1005116
09:00+22вюв3463100 0.0 1005446
12:00+26в225699 0.0 1005734
15:00+28всв11530 0.0 10041015
18:00+27зсз24620 0.0 1004245
21:00+21зюз47775 0.0 1007124